Location: Bord�res
(43.2000°N, 0.2167°W)
Time: 13:55:15
(UTC+00:00)

Cosmos 1503 Rocket - Pass Details

Date: 03 March 2021
Orbit: 753 x 790 km, 74.0° (Epoch: 20 April)

Event Time Altitude Azimuth Distance (km) Brightness Sun altitude
Rises 18:29:27 0° 345° (NNW) 3,228 7.4 -7.5°
Reaches altitude 10° 18:31:59 10° 353° (N) 2,294 6.6 -8.0°
Maximum altitude 18:36:52 40° 63° (ENE) 1,102 4.4 -8.9°
Drops below altitude 10° 18:41:42 10° 133° (SE) 2,272 6.0 -9.7°
Sets 18:44:11 0° 141° (SE) 3,192 6.8 -10.2°
